Location: Kalamazoo
(42.2920°N, 85.5870°W)
Time: 15:04:53
(UTC-05:00)

Daily predictions for brighter satellites

Satellite Brightness Start Highest point End
(mag) Time Altitude Azimuth Time Altitude Azimuth Time Altitude Azimuth
Okean 3 Rocket 3.9 18:05:02 10° SSE 18:09:23 48° E 18:13:43 10° NNE
CORIOLIS 4.1 18:04:19 10° SSE 18:09:37 71° ENE 18:14:58 10° N
Cosmos 2263 4.3 18:05:05 10° NNW 18:10:55 90° SE 18:16:38 10° SSE
Cosmos 1656 Rocket 4.1 18:07:07 10° N 18:12:11 37° ENE 18:17:18 10° SE
SKYMED 2 4.4 18:09:18 10° NE 18:13:10 30° E 18:17:00 10° SSE
Cosmos 2369 Rocket 2.9 18:08:32 10° NNW 18:14:07 62° WSW 18:19:43 10° S
Cosmos 2341 Rocket 4.1 18:11:14 10° N 18:17:32 90° WSW 18:23:51 10° S
Meteor 2-16 Rocket 4.4 18:12:25 10° N 18:18:32 71° E 18:24:37 10° SSE
CSL-04 Rocket 4.0 18:14:10 10° S 18:19:42 75° WSW 18:25:14 10° NNW
Cosmos 1300 2.8 18:16:17 10° N 18:20:03 53° E 18:23:47 10° SSE
YAOGAN 1 2.7 18:16:31 10° SSE 18:20:43 52° ENE 18:24:57 10° N
Cosmos 1943 Rocket 2.3 18:15:56 10° NNW 18:21:33 81° WSW 18:27:05 10° SSE
Meteor 2-21 Rocket 4.5 18:16:04 10° N 18:22:12 90° WSW 18:28:15 10° S
ERS-2 3.6 18:20:36 10° ESE 18:23:08 18° ENE 18:25:40 10° NNE
SL-24 R/B - RUBIN 2 3.8 18:21:28 10° NNW 18:25:53 47° NE 18:30:03 10° SE
IRAS Rocket 4.3 18:22:09 10° SSE 18:27:42 86° WSW 18:33:19 10° NNW
Cosmos 2221 3.0 18:28:07 10° NNW 18:32:29 66° W 18:36:49 10° S
Cosmos 2058 4.3 18:30:45 10° SE 18:33:39 18° E 18:36:32 10° NE
CZ-2C R/B 3.7 18:28:57 10° NNE 18:33:41 75° ESE 18:38:19 10° S
SL-14 R/B 3.2 18:31:09 10° S 18:35:08 84° E 18:39:06 10° N
Ariane Rocket 3.6 18:30:53 10° S 18:35:53 62° WSW 18:40:56 10° NNW
BREEZE-M R/B 3.1 18:34:50 10° W 18:37:17 37° NNW 18:38:37 16° NE
OAO 3 Rocket 4.5 18:34:48 10° WSW 18:38:59 33° S 18:43:13 10° ESE
Cosmos 2181 Rocket 4.3 18:34:08 10° SSW 18:40:34 76° W 18:47:01 10° N
FENGYUN 3A 3.7 18:38:23 10° SSE 18:43:37 60° ENE 18:48:54 10° N
Cosmos 44 3.0 18:39:44 10° SSW 18:43:59 66° ESE 18:48:03 12° NE
Cosmos 1726 4.2 18:47:05 10° NNW 18:50:21 31° W 18:53:36 10° SSW
CZ-4 R/B 2.6 18:46:45 10° S 18:50:50 48° W 18:54:59 10° NNW
Cosmos 1515 Rocket 4.3 18:48:27 10° NNE 18:52:16 29° ENE 18:56:03 10° SE
Cosmos 1408 Rocket 3.4 18:48:10 10° S 18:52:25 65° E 18:56:42 10° NNE
Cosmos 2151 3.8 18:48:59 10° SSE 18:52:37 28° E 18:55:25 15° NE
SL-8 Rocket 4.3 18:49:06 10° NNW 18:55:16 72° W 19:01:27 10° S
ERBS 4.2 18:54:46 10° NNW 18:56:52 15° NNE 18:56:54 15° NNE
SPOT 3 Rocket 3.5 18:53:13 10° SSE 18:58:19 66° ENE 19:03:27 10° N
Cosmos 1777 Rocket 3.9 18:54:19 10° NNW 18:59:35 75° ENE 19:04:50 10° SSE
Meteor 1-27 4.3 18:55:30 10° N 19:01:09 58° ENE 19:06:50 10° SSE
COSMO-SKYMED 1 2.7 18:56:59 10° N 19:01:20 80° WNW 19:05:40 10° SSW
TSX-5 3.7 18:58:14 10° SW 19:01:24 65° WNW 19:04:25 14° NNE
Cosmos 2218 Rocket 4.2 18:56:13 10° N 19:02:23 75° W 19:08:29 10° S
Meteor 1-11 4.2 18:58:16 10° S 19:03:47 66° E 19:09:24 10° NNE
Cosmos 1346 Rocket 2.6 19:00:10 10° N 19:04:04 64° ENE 19:07:54 10° SSE
PKM 4.0 19:02:44 10° NW 19:05:21 40° NE 19:06:37 28° E
Cosmos 1500 Rocket 4.2 19:01:34 10° SSE 19:05:34 34° E 19:07:49 21° NE
Cosmos 1315 Rocket 3.3 19:02:54 10° SSW 19:06:47 59° WNW 19:10:40 10° N
H-2A R/B 2.9 19:05:21 10° SSE 19:09:00 46° ENE 19:12:43 10° N
COSMOS 2406 3.4 19:03:53 10° S 19:09:23 51° ESE 19:13:27 18° NE
USA 81 4.3 19:05:15 10° SSE 19:10:13 43° E 19:15:10 10° NNE
MTI 4.4 19:09:11 10° N 19:12:21 57° WNW 19:15:29 10° SSW
Cosmos 2228 Rocket 3.1 19:11:11 10° N 19:15:43 58° E 19:20:14 10° SSE
Cosmos 1455 2.2 19:14:06 10° N 19:17:54 55° E 19:21:38 10° SSE
Cosmos 44 Rocket 3.3 19:13:39 10° SW 19:18:19 75° WNW 19:21:35 20° NNE
FengYun 1-2 T 4.2 19:14:35 10° SSE 19:20:07 62° ENE 19:25:39 10° N
Cosmos 1743 Rocket 3.5 19:15:51 10° S 19:20:09 63° E 19:23:39 15° NNE
Cosmos 1328 Rocket 3.5 19:19:31 10° N 19:23:55 86° W 19:28:15 10° S
Cosmos 1898 Rocket 4.5 19:24:28 10° N 19:28:12 28° NE 19:28:12 28° NE
Cosmos 1241 Rocket 4.3 19:23:12 10° NNW 19:29:27 79° ENE 19:35:43 10° SE
Tiangong 1 2.4 19:29:56 10° W 19:31:42 29° SW 19:31:42 29° SW
TIMED 4.4 19:30:32 10° NNW 19:34:56 88° E 19:39:18 10° SSE
Cosmos 2098 Rocket 4.0 19:29:47 10° N 19:35:06 77° W 19:41:43 10° S
EO 1 Del DPAF 4.1 19:32:08 10° N 19:35:51 48° WNW 19:39:32 10° SSW
GEOS 3 Rocket 3.8 19:35:23 39° E 19:37:00 55° NE 19:42:15 10° NNW
Cosmos 1626 3.7 19:33:56 10° SW 19:37:23 36° WNW 19:40:50 10° N
ALOS 3.8 19:34:30 10° SSW 19:38:49 37° W 19:43:09 10° NNW
Cosmos 332 Rocket 3.7 19:34:20 10° SSW 19:39:12 81° ESE 19:41:20 34° NNE
Meteor 2-15 Rocket 4.4 19:34:56 10° S 19:40:55 58° E 19:46:54 10° NNE
NOSS 3-4 (A) 4.4 19:36:50 10° NW 19:43:47 60° WSW 19:51:14 10° SSE
NOSS 3-4 (C) 4.4 19:36:56 10° NW 19:43:54 61° WSW 19:51:21 10° SSE
Cosmos 1821 Rocket 3.8 19:37:44 10° N 19:43:55 71° E 19:50:08 10° SSE
Lacrosse 5 3.4 19:40:12 10° S 19:42:42 21° SSE 19:42:42 21° SSE
Cosmos 1535 Rocket 4.4 19:38:53 10° N 19:44:59 62° E 19:51:00 10° SSE
Envisat 4.0 19:51:21 30° NNE 19:51:21 30° NNE 19:54:08 10° N
Cosmos 1570 Rocket 3.9 19:47:58 10° SSW 19:53:16 77° ESE 19:54:22 56° NE
ERS-2 4.0 19:53:14 10° SSW 19:56:32 31° W 19:59:53 10° NW
Nadezhda 3 Rocket 4.3 19:50:27 10° SSW 19:56:44 70° W 20:03:07 10° N
Cosmos 1151 Rocket 3.6 19:54:23 10° NNW 19:58:42 57° W 20:02:59 10° S
Cosmos 2058 4.5 20:06:29 10° SW 20:10:18 34° WNW 20:12:51 18° NNW
CZ-4C R/B 3.5 20:07:27 10° S 20:09:27 23° S 20:09:27 23° S
Thor Agena Rocket 3.7 20:16:03 56° NNW 20:17:04 72° WNW 20:22:15 10° SSW
Cosmos 1934 Rocket 4.0 20:15:24 10° N 20:21:47 81° W 20:28:09 10° S
USA 215 4.5 20:23:15 26° NNE 20:23:22 26° N 20:28:34 10° NW
Cosmos 371 Rocket 4.3 20:20:08 10° SW 20:24:41 42° WNW 20:25:21 40° NW
